Regional Weather Roundup
Issued by NWS

Home | Current Version | Previous Version | Graphics & Text | Print | Product List | Glossary Off
Versions: 1 2 3 4 5 6 7 8 9 10 11 12 13 14 15 16 17 18 19 20 21 22 23 24 25 26 27 28 29 30 31 32 33 34 35 36 37 38 39 40 41 42 43 44 45 46 47 48 49 50

000
ASUS43 KTOP 291459
RWRKS

WEATHER ROUNDUP FOR KANSAS
NATIONAL WEATHER SERVICE GOODLAND KS
900 AM CST THU JAN 29 2015

NOTE:  "FAIR" INDICATES FEW OR NO CLOUDS BELOW 12,000 FEET WITH NO
SIGNIFICANT WEATHER AND/OR OBSTRUCTIONS TO VISIBILITY.

KSZ001>006-013>018-027>032-041>047-291600-
NORTHWEST KANSAS

CITY           SKY/WX    TMP DP  RH WIND       PRES   REMARKS
GOODLAND       MOCLDY    30  26  85 N13       30.48R WCI  20
HAYS           MOSUNNY   36  21  55 NW15      30.44R WCI  26
HILL CITY      MOSUNNY   33  26  75 NW13      30.46R WCI  24
RUSSELL        MOSUNNY   36  26  67 NW15      30.42R WCI  27
$$

KSZ061>065-074>080-084>089-291600-
SOUTHWEST KANSAS

CITY           SKY/WX    TMP DP  RH WIND       PRES   REMARKS
DODGE CITY     MOSUNNY   34  27  75 N18       30.46R WCI  23
ELKHART          N/A     39  23  52 N8          N/A
GARDEN CITY    PTSUNNY   34  28  79 N17       30.47R WCI  23
LIBERAL        CLOUDY    37  28  70 N12       30.49R WCI  30
$$

KSZ066>073-081>083-090>101-291600-
SOUTHEAST KANSAS

CITY           SKY/WX    TMP DP  RH WIND       PRES   REMARKS
CHANUTE        CLOUDY    41  30  65 N16G24    30.31R
COFFEYVILLE    CLOUDY    43  31  62 N17G28    30.31R
HUTCHINSON     MOSUNNY   40  28  62 N17G25    30.39R WCI  31
MEDICINE LODGE   N/A     40  30  67 N13       30.42R WCI  32
NEWTON         CLOUDY    39  25  56 N23G33    30.37R WCI  29
PARSONS        CLOUDY    42  30  62 N25G36    30.32R
WICHITA INTL   PTSUNNY   43  29  57 N17       30.37R
WICHITA JABRA  CLOUDY    41  29  62 N22G32    30.36R
WINFIELD       CLOUDY    42  30  62 N17G25    30.38R
$$

KSZ007>012-019>026-033>040-048>060-102>105-291600-
NORTHEAST KANSAS

CITY           SKY/WX    TMP DP  RH WIND       PRES   REMARKS
CONCORDIA      CLOUDY    40  27  59 N25G33    30.38R WCI  29
EMPORIA        CLOUDY    40  29  64 N17G28    30.33R WCI  31
LAWRENCE       CLOUDY    39  28  64 NW24G33   30.29R WCI  28
MANHATTAN      CLOUDY    41  29  62 N17G29    30.37R
OLATHE IND     CLOUDY    37  28  70 N18G30    30.27R WCI  27
OLATHE EXE     CLOUDY    38  28  67 N16G25    30.25R WCI  29
SALINA         CLOUDY    41  29  62 NW15      30.41R
TOPEKA BILLARD CLOUDY    40  29  64 NW18G31   30.31R WCI  31
TOPEKA FORBES  CLOUDY    41  29  62 N20G31    30.30R
$$



USA.gov is the U.S. government's official web portal to all federal, state and local government web resources and services.